CALSPHERE 1 1 00900U 64063C 26168.17322492 .00000523 00000+0 52292-3 0 9993 2 00900 90.2234 71.7707 0023960 297.3935 158.2326 13.76623461 71428 CALSPHERE 2 1 00902U 64063E 26168.02096284 .00000042 00000+0 50229-4 0 9991 2 00902 90.2373 75.7913 0017055 223.6949 147.7924 13.52900153856240 LCS 1 1 01361U 65034C 26167.66687788 -.00000005 00000+0 -17950-2 0 9997 2 01361 32.1353 178.2608 0012297 120.7147 239.4563 9.89310783209837 TEMPSAT 1 1 01512U 65065E 26167.86079722 .00000041 00000+0 66263-4 0 9995 2 01512 89.9989 212.5940 0067792 248.9702 286.4091 13.33594114960008 CALSPHERE 4A 1 01520U 65065H 26168.14214294 .00000104 00000+0 17934-3 0 9991 2 01520 89.8982 122.4881 0071979 103.0338 281.9365 13.36278352962709 OPS 5712 (P/L 160) 1 02826U 67053A 26168.11621117 .00005107 00000+0 72177-3 0 9991 2 02826 69.9170 38.4705 0000800 281.3155 78.7903 14.77717383 66220 OPS 5712 (P/L 153) 1 02874U 67053H 26168.05172705 .00000006 00000+0 42835-4 0 9993 2 02874 69.9731 115.5968 0008537 213.9255 146.1306 13.96828271 6771 RIGIDSPHERE 2 (LCS 4) 1 05398U 71067E 26168.19183921 .00000530 00000+0 16655-3 0 9996 2 05398 87.6213 338.8080 0058075 231.4622 128.1364 14.37867214873881 COSMOS 2493 (SKRL-756 1) 1 39490U 13078A 26168.15177787 .00002232 00000+0 16742-3 0 9991 2 39490 82.4133 261.2212 0011870 240.3110 119.6933 15.02163100677957 COSMOS 2494 (SKRL-756 2) 1 39491U 13078B 26168.14982360 .00002215 00000+0 15437-3 0 9993 2 39491 82.4116 250.6124 0015711 198.4744 161.5914 15.04863717678800